Scottsbluff, NE

3:11 PM MDT on July 17, 2019 (GMT -0600)
Heilig

Weather History for KBFF - May, 2019

Change the Weather History Date:

Wednesday, May 22, 2019

  Actual Average Record
Temperature  
Mean Temperature 43 °F -  
Max Temperature 52 °F 71 °F 100 °F (2012)
Min Temperature 34 °F 45 °F 29 °F (1915)
Degree Days  
Heating Degree Days 22    
Moisture  
Dew Point 35 °F    
Average Humidity 86    
Maximum Humidity 100    
Minimum Humidity 48    
Precipitation  
Precipitation 0.04 in - - ()
Sea Level Pressure  
Sea Level Pressure 29.72 in    
Wind  
Wind Speed 15 mph (WNW)    
Max Wind Speed 24 mph    
Max Gust Speed 30 mph    
Visibility 9 miles    
Events Rain , Snow    
Averages and records for this station are not official NWS values.
T = Trace of Precipitation, MM = Missing Value Source: NWS Daily Summary

Daily Weather History Graph

Daily Weather History Graph

Search for Another Location

Airport or City:

Astronomy

May. 22, 2019 Rise Set
Actual Time 5:28 AM MDT 8:14 PM MDT
Civil Twilight 4:55 AM MDT 8:47 PM MDT
Nautical Twilight 4:14 AM MDT 9:28 PM MDT
Astronomical Twilight 3:27 AM MDT 10:15 PM MDT
Moon No Moon Rise 8:37 AM MDT (5/22)
Length of Visible Light 15h 51m
Length of Day
14h 46m
Waning Gibbous, 84% of the Moon is Illuminated
May 22
Waning Gibbous
May 26
Last Quarter
Jun 3
New
Jun 10
First Quarter
Jun 17
Full

Hourly Weather History & Observations

Time (MDT) Temp. Windchill Dew Point Humidity Pressure Visibility Wind Dir Wind Speed Gust Speed Precip Events Conditions
12:53 AM 35.1 °F 25.5 °F 34.0 °F 96% 29.58 in 10.0 mi WNW 15.0 mph - 0.00 in   Overcast
1:08 AM 35.1 °F 25.9 °F 34.0 °F 96% 29.55 in 8.0 mi WNW 13.8 mph - 0.00 in Snow Light Snow
1:28 AM 35.1 °F 25.9 °F 34.0 °F 96% 29.55 in 9.0 mi WNW 13.8 mph - 0.00 in Snow Light Snow
1:49 AM 33.8 °F 23.9 °F 33.8 °F 100% 29.55 in 7.0 mi WNW 15.0 mph - 0.01 in Snow Light Snow
1:53 AM 34.0 °F 25.0 °F 34.0 °F 100% 29.59 in 7.0 mi WNW 12.7 mph - 0.01 in Snow Light Snow
2:35 AM 35.1 °F 25.9 °F 34.0 °F 96% 29.55 in 9.0 mi WNW 13.8 mph - 0.01 in Snow Light Snow
2:53 AM 35.1 °F 26.4 °F 34.0 °F 96% 29.59 in 10.0 mi WNW 12.7 mph - 0.01 in Rain Light Rain
3:13 AM 35.1 °F 26.4 °F 34.0 °F 96% 29.56 in 9.0 mi WNW 12.7 mph - 0.00 in Snow Light Snow
3:27 AM 35.1 °F 26.4 °F 34.0 °F 96% 29.56 in 9.0 mi WNW 12.7 mph - 0.00 in Snow Light Snow
3:43 AM 35.1 °F 26.4 °F 34.0 °F 96% 29.56 in 8.0 mi WNW 12.7 mph - 0.01 in Snow Light Snow
3:53 AM 35.1 °F 25.9 °F 34.0 °F 96% 29.59 in 9.0 mi WNW 13.8 mph - 0.01 in Snow Light Snow
4:14 AM 35.1 °F 26.9 °F 34.0 °F 96% 29.56 in 9.0 mi WNW 11.5 mph - 0.00 in Snow Light Snow
4:50 AM 33.8 °F 24.3 °F 33.8 °F 100% 29.57 in 7.0 mi WNW 13.8 mph - 0.01 in Snow Light Snow
4:53 AM 34.0 °F 25.0 °F 34.0 °F 100% 29.62 in 7.0 mi WNW 12.7 mph - 0.01 in Snow Light Snow
5:13 AM 34.0 °F 25.0 °F 34.0 °F 100% 29.58 in 9.0 mi WNW 12.7 mph - 0.00 in   Overcast
5:33 AM 34.0 °F 26.0 °F 34.0 °F 100% 29.58 in 9.0 mi WNW 10.4 mph - 0.00 in Snow Light Snow
5:53 AM 34.0 °F 25.5 °F 34.0 °F 100% 29.63 in 5.0 mi WNW 11.5 mph - 0.01 in Snow Light Snow
6:04 AM 35.1 °F 26.4 °F 34.0 °F 96% 29.58 in 9.0 mi WNW 12.7 mph - 0.00 in   Overcast
6:24 AM 35.1 °F 25.9 °F 34.0 °F 96% 29.59 in 10.0 mi WNW 13.8 mph - 0.00 in   Overcast
6:53 AM 36.0 °F 27.5 °F 35.1 °F 97% 29.65 in 10.0 mi WNW 12.7 mph - 0.00 in   Overcast
7:06 AM 36.0 °F 27.5 °F 35.1 °F 97% 29.61 in 10.0 mi WNW 12.7 mph - N/A   Overcast
7:13 AM 36.0 °F 26.7 °F 35.1 °F 97% 29.62 in 10.0 mi WNW 15.0 mph - N/A   Overcast
7:53 AM 37.9 °F 28.9 °F 36.0 °F 93% 29.67 in 10.0 mi WNW 16.1 mph - N/A   Overcast
8:29 AM 37.9 °F 27.9 °F 36.0 °F 93% 29.65 in 10.0 mi WNW 19.6 mph - N/A   Overcast
8:53 AM 39.0 °F 28.8 °F 37.0 °F 93% 29.69 in 10.0 mi WNW 21.9 mph - 0.00 in Rain Light Rain
9:53 AM 41.0 °F 31.6 °F 37.0 °F 86% 29.72 in 10.0 mi NW 20.7 mph 28.8 mph 0.00 in   Overcast
10:53 AM 45.0 °F 36.2 °F 37.0 °F 74% 29.72 in 10.0 mi NW 24.2 mph 29.9 mph N/A   Overcast
11:53 AM 44.1 °F 35.4 °F 36.0 °F 73% 29.75 in 10.0 mi WNW 21.9 mph 27.6 mph N/A   Overcast
12:53 PM 46.9 °F - 36.0 °F 66% 29.76 in 10.0 mi NW 23.0 mph 27.6 mph N/A   Overcast
1:53 PM 46.0 °F 39.0 °F 36.0 °F 68% 29.81 in 10.0 mi WNW 17.3 mph 24.2 mph N/A   Overcast
2:08 PM 46.0 °F 39.6 °F 36.0 °F 68% 29.80 in 10.0 mi WNW 15.0 mph 25.3 mph N/A   Overcast
2:24 PM 46.9 °F - 37.0 °F 68% 29.80 in 10.0 mi WNW 17.3 mph - N/A   Overcast
2:53 PM 48.0 °F - 37.0 °F 66% 29.82 in 10.0 mi NW 18.4 mph - N/A   Overcast
3:53 PM 51.1 °F - 37.0 °F 59% 29.85 in 10.0 mi NW 20.7 mph 28.8 mph N/A   Scattered Clouds
4:53 PM 51.1 °F - 37.9 °F 61% 29.88 in 10.0 mi WNW 20.7 mph 28.8 mph N/A   Scattered Clouds
5:53 PM 51.1 °F - 37.0 °F 59% 29.90 in 10.0 mi WNW 21.9 mph 27.6 mph N/A   Scattered Clouds
6:53 PM 50.0 °F - 37.0 °F 61% 29.92 in 10.0 mi WNW 16.1 mph 23.0 mph N/A   Scattered Clouds
7:53 PM 46.0 °F 40.6 °F 37.0 °F 71% 29.97 in 10.0 mi NW 11.5 mph - N/A   Clear
8:53 PM 39.9 °F 34.5 °F 36.0 °F 86% 30.03 in 10.0 mi WNW 8.1 mph - N/A   Clear
9:53 PM 37.0 °F 31.6 °F 34.0 °F 89% 30.07 in 10.0 mi WNW 6.9 mph - N/A   Clear
10:53 PM 36.0 °F 29.6 °F 35.1 °F 97% 30.04 in 10.0 mi WNW 8.1 mph - N/A   Clear
11:53 PM 35.1 °F 30.1 °F 34.0 °F 96% 30.06 in 10.0 mi WNW 5.8 mph - N/A   Clear